Printer-friendly version

IAU Minor Planet Center

Minor Planet Center

MPEC 2004-S14 : 2004 SR

The following Minor Planet Electronic Circular may be linked-to from your own Web pages, but must not otherwise be redistributed electronically.


Read MPEC 2004-S13 Read MPEC 2004-S15


M.P.E.C. 2004-S14                                Issued 2004 Sept. 18, 04:43 UT

     The Minor Planet Electronic Circulars contain information on unusual
         minor planets and routine data on comets.  They are published
   on behalf of Commission 20 of the International Astronomical Union by the
          Minor Planet Center, Smithsonian Astrophysical Observatory,
                          Cambridge, MA 02138, U.S.A.

                  Supported in part by the Brinson Foundation
             Prepared using the Tamkin Foundation Computer Network

                              MPC@CFA.HARVARD.EDU
          URL http://cfa-www.harvard.edu/iau/mpc.html  ISSN 1523-6714

                                    2004 SR

Observations:
     K04S00R  C2004 09 14.34008 01 05 41.70 -06 46 07.9          17.3 R ES014699
     K04S00R  C2004 09 14.35631 01 05 27.91 -06 41 31.2                 ES014699
     K04S00R  C2004 09 14.37254 01 05 14.07 -06 36 55.0                 ES014699
     K04S00R  C2004 09 14.38879 01 05 00.20 -06 32 21.1                 ES014699
     K04S00R* C2004 09 17.27466 00 34 33.56 +05 01 17.3          17.9   ES014704
     K04S00R  C2004 09 17.28634 00 34 26.42 +05 03 37.1          18.0   ES014704
     K04S00R  C2004 09 17.29802 00 34 19.26 +05 05 56.4          18.2   ES014704
     K04S00R  C2004 09 17.30970 00 34 12.10 +05 08 15.7          18.1   ES014704
     K04S00R  C2004 09 17.32139 00 34 04.93 +05 10 34.4          18.3   ES014704
     K04S00R  C2004 09 17.90376 00 29 11.65 +07 00 34.5          17.4 V ES014A16
     K04S00R  C2004 09 17.90616 00 29 10.33 +07 01 01.6          17.6 V ES014A16
     K04S00R  C2004 09 17.90853 00 29 09.06 +07 01 27.7          17.7 V ES014A16
     K04S00R  C2004 09 17.91074 00 29 07.79 +07 01 51.8          17.8 V ES014A16
     K04S00R  C2004 09 17.91327 00 29 06.42 +07 02 19.4          17.6 V ES014A16
     K04S00R  C2004 09 18.08867 00 27 28.66 +07 33 51.3                 ES014246
     K04S00R  C2004 09 18.08925 00 27 28.35 +07 33 57.3                 ES014246
     K04S00R  C2004 09 18.08958 00 27 28.18 +07 34 01.2                 ES014246
     K04S00R  C2004 09 18.09006 00 27 27.90 +07 34 06.3                 ES014246
     K04S00R  C2004 09 18.09046 00 27 27.68 +07 34 10.6                 ES014246

Observer details:
246 Klet Observatory-KLENOT.  Observers J. Ticha, M. Tichy, M. Kocer.
    Measurer M. Tichy.  1.06-m KLENOT Telescope + CCD.
699 Lowell Observatory-LONEOS.  Observer B. A. Skiff.  Measurer B. W. Koehn.
    0.59-m LONEOS Schmidt + CCD.
704 Lincoln Laboratory ETS, New Mexico.  Observers M. Blythe, F. Shelly,
    M. Bezpalko, R. Huber, L. Manguso, D. Torres, R. Kracke, M. McCleary,
    H. Stange, A. Milner.  Measurers J. Stuart, R. Sayer, J. Evans, J. Kommers.
    1.0-m f/2.15 reflector + CCD.
A16 Tentlingen.  Observer P. Kocher.  0.3-m f/4 reflector + CCD.

Orbital elements:
2004 SR
Epoch 2004 Sept. 12.0 TT = JDT 2453260.5                MPC
M  43.21938              (2000.0)            P               Q
n   0.80265324     Peri.  297.41199     +0.38060979     +0.92463980
a   1.1467025      Node   354.90423     -0.78663468     +0.31616290
e   0.1601482      Incl.    8.62503     -0.48615024     +0.21232584
P   1.23           H   23.7           G   0.15
From 19 observations 2004 Sept. 14-18.

Ephemeris:
2004 SR                  a,e,i = 1.15, 0.16, 9                   q = 0.9631
Date    TT    R. A. (2000) Decl.     Delta      r     Elong.  Phase     V
2004 09 12    01 39.67   -18 57.9    0.028    1.029   143.2    35.9    17.5
2004 09 17    00 36.97   +04 07.4    0.037    1.041   164.3    15.2    17.5
2004 09 22    00 01.86   +16 35.0    0.051    1.052   163.1    16.1    18.2
2004 09 27    23 41.16   +22 58.5    0.067    1.065   157.1    21.5    19.0
2004 10 02    23 28.53   +26 24.9    0.085    1.077   152.4    25.5    19.7
2004 10 07    23 20.97   +28 18.2    0.104    1.090   148.7    28.4    20.2
2004 10 12    23 16.96   +29 18.2    0.124    1.103   145.6    30.8    20.7
2004 10 17    23 15.70   +29 46.4    0.145    1.116   142.8    32.7    21.1
2004 10 22    23 16.63   +29 55.6    0.167    1.129   140.3    34.3    21.5
2004 10 27    23 19.34   +29 53.6    0.190    1.142   137.8    35.8    21.8
2004 11 01    23 23.47   +29 45.0    0.214    1.155   135.4    37.1    22.2

Timothy B. Spahr             (C) Copyright 2004 MPC           M.P.E.C. 2004-S14

Read MPEC 2004-S13 Read MPEC 2004-S15


Our Web policy. Index to the CBAT/MPC/ICQ pages.


Valid HTML 4.01!